Regional Weather Roundup
Issued by NWS

Home | Current Version | Previous Version | Text Only | Print | Product List | Glossary On
Versions: 1 2 3 4 5 6 7 8 9 10 11 12 13 14 15 16 17 18 19 20 21 22 23 24 25 26 27 28 29 30 31 32 33 34 35 36 37 38 39 40 41 42 43 44 45 46 47 48 49 50
000
ASUS43 KIND 311809
RWRIN

WEATHER ROUNDUP FOR INDIANA
NATIONAL WEATHER SERVICE INDIANAPOLIS IN
200 PM EDT FRI OCT 31 2014

NOTE: "FAIR" INDICATES FEW OR NO CLOUDS BELOW 12,000 FEET WITH NO
SIGNIFICANT WEATHER AND/OR OBSTRUCTIONS TO VISIBILITY.

* - STATION DOES NOT REPORT WEATHER SUCH AS PRECIPITATION OR FOG.

+ - STATION NOT QUALITY CONTROLLED BY THE NATIONAL WEATHER SERVICE.
    USE DATA WITH CAUTION...ESPECIALLY DEWPOINT AND RELATIVE
    HUMIDITY OBSERVATIONS.

INZ001>003-010>013-019-020-311900-
NORTHWEST INDIANA

CITY           SKY/WX    TMP DP  RH WIND       PRES   REMARKS
GARY /AIRPORT/ LGT RAIN  36  32  87 NW37G67   30.09F
KNOX *+        CLOUDY    39  36  88 N28       29.97F
LA PORTE +     LGT RAIN  40  38  93 N24G33    29.99R
6HR MIN TEMP:  36; 6HR MAX TEMP:  42; 6HR PCP:  0.15;

MICHIGAN CITY+ LGT RAIN  37  36  93 N23G36    30.02R
MONTICELLO +   RAIN      37  34  88 NW29G39   30.02S
RENSSELAER +   FLURRIES  37  34  87 NW20G35   30.06S
VALPARAISO     LGT RAIN  38  36  92 N25G41    30.02S
6HR MIN TEMP:  34; 6HR MAX TEMP:  40; 6HR PCP:  0.27;


$$

LMZ046-743>745-311900-
SOUTHERN LAKE MICHIGAN

STATION/POSITION TIME  TEMP WIND        PRES
                       AIR  DIR/SP/G
                 (UTC) (F)  (DEG/KT/KT) (MB)
MICHIGAN CITY    1800   41  350/ 45/ 50   N/A

$$

INZ004-005-014>016-021>024-311900-
NORTH CENTRAL INDIANA

CITY           SKY/WX    TMP DP  RH WIND       PRES   REMARKS
ELKHART        LGT RAIN  39  36  87 N12G20    29.95
GOSHEN         LGT RAIN  44  36  73 N12       29.92S
6HR MIN TEMP:  38; 6HR MAX TEMP:  44; 6HR PCP:  0.08;

LOGANSPORT +   DRIZZLE   36  34  93 NW16G23   29.98F
PERU/GRISSOM   LGT RAIN  37  37 100 W20       29.96F
6HR MIN TEMP:  36; 6HR MAX TEMP:  43; 6HR PCP:  0.13;

ROCHESTER +    CLOUDY    41  37  87 NW13G18   29.94F
SOUTH BEND     CLOUDY    40  38  93 N18G30    29.98R
6HR MIN TEMP:  37; 6HR MAX TEMP:  43; 6HR PCP:  0.29;

WARSAW +       CLOUDY    41  36  81 NW9       29.92F

$$

INZ006>009-017-018-025>027-311900-
NORTHEAST INDIANA

CITY           SKY/WX    TMP DP  RH WIND       PRES   REMARKS
ANGOLA *+        N/A     43  30  61 N9        29.91R
AUBURN +       CLOUDY    43  34  70 NW6       29.91S
FORT WAYNE     PTSUNNY   43  36  76 NW8       29.92F
6HR MIN TEMP:  39; 6HR MAX TEMP:  43; 6HR PCP:  0.08;

HUNTINGTON +   CLOUDY   N/A N/A N/A NW9       29.92F
                                      6HR PCP:  0.04;


$$

INZ028-029-035-036-043>045-051>053-311900-
WEST CENTRAL INDIANA

CITY           SKY/WX    TMP DP  RH WIND       PRES   REMARKS
CRAWFORDSVL +  CLOUDY    37  32  81 NW15G22   30.05F
GREENCASTLE +  CLOUDY    39  32  75 NW17G24   30.06S
LAFAYETTE      PTSUNNY   41  29  62 NW21G32   30.04F
6HR MIN TEMP:  36; 6HR MAX TEMP:  41; 6HR PCP:  0.02;

TERRE HAUTE    CLOUDY    41  30  65 NW21G31   30.09F
6HR MIN TEMP:  39; 6HR MAX TEMP:  45; 6HR PCP:  0.01;


$$

INZ030>032-037>040-046>048-054>057-064-065-311900-
CENTRAL INDIANA

CITY           SKY/WX    TMP DP  RH WIND       PRES   REMARKS
ANDERSON       LGT RAIN  39  34  81 NW17G29   29.96F
CP ATTERBURY + DRIZZLE   39  36  87 NW13G18   30.01S
COLUMBUS       CLOUDY    39  37  93 NW15G25   30.00F
FRANKFORT +    CLOUDY    37  37 100 W15G22    30.03F
INDIANAPOLIS   PTSUNNY   40  32  73 NW16G25   30.01S
6HR MIN TEMP:  38; 6HR MAX TEMP:  45; 6HR PCP:  0.06;

-EAGLE CREEK   LGT RAIN  40  34  79 NW22G28   30.01F
6HR MIN TEMP:  39; 6HR MAX TEMP:  46; 6HR PCP:  0.09;

KOKOMO *+      CLOUDY    37  34  87 NW18      29.98F
MARION +       LGT RAIN  38  35  87 NW20G26   29.95F
MT COMFORT *+  MOSUNNY   41  28  60 NW23G35   29.99S
SHELBYVILLE    CLOUDY    43  34  70 NW25G32   29.97F
6HR MIN TEMP:  40; 6HR MAX TEMP:  46; 6HR PCP:  0.08;

ZIONSVILLE +   RAIN      37  33  84 NW18G25   30.01S
6HR MIN TEMP:  37; 6HR MAX TEMP:  44; 6HR PCP:  0.10;


$$

INZ033-034-041-042-049-050-058-059-311900-
EAST CENTRAL INDIANA

CITY           SKY/WX    TMP DP  RH WIND       PRES   REMARKS
MUNCIE         CLOUDY    41  36  82 NW17G24   29.94F
6HR MIN TEMP:  40; 6HR MAX TEMP:  43; 6HR PCP:  0.11;


$$

INZ060-061-067>069-081>083-085>088-311900-
SOUTHWEST INDIANA

CITY           SKY/WX    TMP DP  RH WIND       PRES   REMARKS
EVANSVILLE     LGT RAIN  46  27  47 N17G26    30.11F
6HR MIN TEMP:  42; 6HR MAX TEMP:  49; 6HR PCP: TRACE;

HUNTINGBURG *+ CLOUDY    41  32  70 N17G28    30.08R
6HR MIN TEMP:  41; 6HR MAX TEMP:  46;

WASHINGTON +   PTSUNNY   44  33  67 NW24G30   30.07F
6HR MIN TEMP:  40; 6HR MAX TEMP:  46;


$$

INZ062-063-066-070>080-084-089>092-311900-
SOUTH CENTRAL AND SOUTHEAST INDIANA

CITY           SKY/WX    TMP DP  RH WIND       PRES   REMARKS
BEDFORD +      LGT RAIN  39  36  87 NW10G22   30.03F
BLOOMINGTON    CLOUDY    41  34  76 NW10      30.04S
6HR MIN TEMP:  39; 6HR MAX TEMP:  44; 6HR PCP:  0.06;


$$




USA.gov is the U.S. government's official web portal to all federal, state and local government web resources and services.